Location: Gleizolles
(44.4833°N, 6.7667°E)
Time: 00:53:18
(UTC+00:00)

S-56A Canister/Altair - Pass Details

Date: 29 June 2024
Orbit: 638 x 2488 km, 38.9° (Epoch: 24 July)

Event Time Altitude Azimuth Distance (km) Brightness Sun altitude
Rises 00:09:08 0° 279° (W) 4,814 11.6 -21.9°
Reaches altitude 10° 00:12:16 10° 272° (W) 4,069 11.1 -21.8°
Maximum altitude 00:22:16 37° 210° (SSW) 3,030 10.0 -21.5°
Drops below altitude 10° 00:34:51 10° 151° (SSE) 5,104 11.3 -21.0°
Sets 00:39:24 0° 144° (SE) 6,151 11.8 -20.8°
